SCP
-0 -0 -0 -0 0 0 -0 -0 -0 0 0 0 -0 -0 -0 -0 -0 -0 -0 -0 -0 -0 -0 -0 -0 -0 -0 -0 -0 -0 -0 -0 -0 -0 -0 -0 -0 -0 -0 -0 -0 -0 -0
0 -0 -0 0 -0 -0 -0 -0 -0 -0 -0 -0 -0 0 -0 -0 -0 -0 -0 -0 -0 -0 -0 -0 -0 -0 -0 -0 -0 -0 -0 -0 -0 -0 -0 -0 -0 -0 -0 -0 -0 -0 -0
0 -0 0 -0 0 -0 0 -0 -0 -0 -0 -0 -0 -0 -0 -0 -0 -0 -0 -0 -0 -0 -0 -0 -0 -0 -0 -0 -0 -0 -0 -0 -0 -0 -0 -0 -0 -0 -0 -0 -0 -0 -0
0 -0 -0 0 0 -0 -0 -0 -0 -0 -0 -0 -0 -0 -0 -0 -0 -0 -0 -0 -0 -0 -0 -0 -0 -0 -0 -0 -0 -0 -0 -0 -0 -0 -0 -0 -0 -0 -0 -0 -0 -0 -0
0 0 0 0 0 -0 -0 -0 -0 -0 -0 -0 -0 -0 -0 -0 -0 -0 -0 -0 -0 -0 -0 -0 -0 -0 -0 -0 -0 -0 -0 -0 -0 -0 -0 -0 -0 -0 -0 -0 -0 -0 -0
0 0 0 0 0 0 0 0 -0 -0 -0 -0 -0 -0 -0 -0 -0 -0 -0 -0 -0 -0 -0 -0 -0 -0 -0 -0 -0 -0 -0 -0 -0 -0 -0 -0 -0 -0 -0 -0 -0 -0 -0
0 0 0 0 0 -0 -0 -0 -0 -0 -0 -0 -0 -0 -0 -0 -0 -0 -0 -0 -0 -0 -0 -0 -0 -0 -0 -0 -0 -0 -0 -0 -0 -0 -0 -0 -0 -0 -0 -0 -0 -0 -0
0 0 0 0 0 -0 -0 -0 -0 -0 -0 -0 -0 -0 -0 -0 -0 -0 -0 -0 -0 -0 -0 -0 -0 -0 -0 -0 -0 -0 -0 -0 -0 -0 0 -0 -0 -0 -0 -0 -0 -0 -0
-0 0 0 0 0 -0 -0 -0 -0 -0 -0 -0 -0 -0 -0 -0 -0 -0 -0 -0 -0 -0 -0 -0 -0 -0 -0 -0 -0 -0 -0 -0 -0 0 -0 -0 -0 -0 -0 -0 -0 -0 -0
-0 -0 -0 0 -0 -0 -0 -0 -0 -0 -0 -0 -0 -0 -0 -0 -0 -0 -0 -0 -0 -0 -0 -0 -0 -0 -0 -0 -0 -0 -0 -0 0 0 0 0 -0 -0 -0 -0 0 0 0
-0 -0 -0 -0 -0 -0 -0 -0 -0 -0 -0 -0 -0 -0 -0 -0 -0 -0 -0 -0 -0 -0 -0 -0 -0 -0 -0 -0 -0 -0 0 0 0 0 0 -0 -0 0 0 0 0 0 0
-0 -0 -0 -0 -0 -0 -0 -0 -0 -0 -0 -0 -0 -0 -0 0 0 0 0 0 0 0 -0 -0 0 0 0 0 0 0 0 0 0 0 0 0 0 0 0 0 0 0 0
-0 -0 -0 -0 -0 -0 -0 -0 -0 -0 -0 -0 -0 0 0 0 0 0 0 0 0 0 0 0 0 0 0 0 0 0 0 0 0 0 0 0 0 0 0 0 0 0 0
-0 -0 -0 -0 -0 -0 -0 -0 -0 -0 0 0 0 0 0 0 0 0 0 0 0 0 0 0 0 0 0 0 0 0 0 0 0 0 0 0 0 0 0 0 0 0 0
-0 -0 -0 -0 -0 -0 -0 -0 -0 -0 -0 0 0 0 0 0 0 0 0 0 0 0 0 0 0 0 0 0 0 0 0 0 0 0 0 0 0 0 0 0 0 0 0
-0 -0 -0 -0 -0 -0 -0 -0 -0 -0 -0 -0 0 0 0 0 0 0 0 0 0 0 0 0 0 0 0 0 0 0 0 0 0 0 0 0 0 0 0 0 0 0 0
-0 -0 -0 -0 -0 -0 -0 -0 -0 -0 -0 0 0 -0 0 0 0 0 0 0 0 0 0 0 0 0 0 0 0 0 0 0 0 0 0 0 0 0 0 0 0 0 0
-0 -0 -0 -0 -0 -0 -0 0 0 0 0 0 0 0 0 0 0 0 0 0 0 0 0 0 0 0 0 0 0 0 0 0 0 0 0 0 0 0 0 0 0 0 0
-0 -0 -0 -0 -0 -0 0 0 0 0 0 0 0 0 0 0 0 0 0 0 0 0 0 0 0 0 0 0 0 0 0 0 0 0 0 0 0 0 0 0 0 0 0
0 -0 -0 0 0 0 0 0 0 0 0 0 0 0 0 0 0 0 0 0 0 0 0 0 0 0 0 0 0 0 0 0 0 0 0 0 0 0 0 0 0 0 0
0 0 0 0 0 0 0 0 0 0 0 0 0 0 0 0 0 0 0 0 0 0 0 0 0 0 0 0 0 0 0 0 0 0 0 0 0 0 0 0 0 0 0
0 0 0 0 0 0 0 0 0 0 0 0 0 0 0 0 0 0 0 0 0 0 0 0 0 0 0 0 0 0 0 0 0 0 0 0 0 0 0 0 0 0 0
0 0 0 0 0 0 0 0 0 0 0 0 0 0 0 0 0 0 0 0 0 0 0 0 0 0 0 0 0 0 0 0 0 0 0 0 0 0 0 0 0 0 0
0 0 0 0 0 0 0 0 0 0 0 0 0 0 0 0 0 0 0 0 0 0 0 0 0 0 0 0 0 0 0 0 0 0 0 0 0 0 0 0 0 0 0
0 0 0 0 0 0 0 0 0 0 0 0 0 0 0 0 0 0 0 0 0 0 0 0 0 0 0 0 0 0 0 0 0 0 0 0 0 0 0 0 0 0 0
0 0 0 0 0 0 0 0 0 0 0 0 0 0 0 0 0 0 0 0 0 0 0 0 0 0 0 0 0 0 0 0 0 0 0 0 0 0 0 0 0 0 0
Wind_Speed_500mb
50 44 24 24 22 18 14 16 19 17 22 21 21 21 24 28 25 20 16 15 22 28 29 32 34 37 42 39 36 32 32 32 33 35 34 34 34 31 29 30 32 34 30
51 36 35 31 29 24 19 18 19 21 23 24 27 30 40 33 28 22 14 18 23 29 30 34 37 39 38 36 35 35 35 34 34 34 34 33 36 39 39 35 31 34 29
51 44 34 33 24 26 22 23 24 26 27 25 26 30 38 31 24 16 13 15 24 29 32 37 39 39 38 36 33 36 36 35 40 47 51 53 50 51 54 48 56 52 51
47 45 40 33 29 22 23 23 26 26 28 27 26 27 32 28 19 14 13 15 24 29 33 37 36 37 37 29 29 30 38 39 43 49 47 52 48 41 45 45 51 47 45
42 38 35 32 28 22 22 23 25 25 26 25 24 25 27 25 16 15 16 20 25 28 31 32 29 29 32 29 27 32 35 37 45 44 39 40 36 33 36 40 42 37 37
41 37 34 31 29 24 21 22 22 23 24 24 23 23 23 19 15 16 17 21 25 29 30 30 30 32 32 31 31 35 40 43 39 33 34 32 42 39 39 29 28 29 37
41 36 33 30 29 25 20 19 19 21 22 21 21 21 21 19 17 17 18 21 24 28 30 30 28 28 31 30 31 37 43 34 26 25 28 46 39 40 39 40 41 41 40
38 37 32 31 27 25 21 17 17 18 19 17 18 18 16 17 16 16 18 20 23 27 28 30 27 27 27 26 27 27 26 22 18 28 35 36 25 40 40 40 41 37 35
34 35 36 34 31 29 25 20 17 16 17 15 14 14 13 13 14 14 16 17 20 24 28 29 28 26 24 21 17 21 21 29 32 38 34 28 30 38 38 39 40 38 36
30 32 35 36 37 34 30 25 21 18 18 16 13 10 10 10 13 14 14 15 15 16 19 22 25 22 20 18 21 30 34 34 39 37 31 25 30 35 35 38 38 37 37
37 33 35 38 40 37 34 31 26 20 19 18 16 14 9 10 12 14 15 16 17 17 18 20 19 20 19 17 17 18 32 35 41 36 27 17 28 35 32 33 33 35 34
51 44 38 42 45 43 40 37 34 31 28 25 22 19 15 15 15 16 15 15 15 16 18 19 18 17 17 16 19 30 30 32 33 30 20 21 25 31 34 33 31 31 31
57 51 46 45 50 48 47 43 41 37 33 32 30 26 22 21 18 18 16 15 15 15 15 14 12 14 15 16 22 32 35 32 31 26 19 26 27 27 29 29 29 29 29
62 58 50 41 49 50 46 46 44 43 42 39 36 33 30 26 17 21 16 14 14 15 13 13 9 9 10 13 18 33 32 32 30 32 31 22 25 24 23 28 31 28 27
67 64 61 50 45 52 49 45 46 46 47 43 44 41 36 32 21 23 23 21 17 14 14 12 9 8 9 12 18 33 37 34 33 34 31 28 25 24 23 23 25 30 24
68 69 64 61 53 52 53 50 49 47 44 48 50 48 41 38 32 28 32 30 29 16 22 20 18 15 14 13 19 30 31 33 33 34 33 32 29 26 24 22 19 23 21
65 67 69 66 62 62 62 58 55 56 54 54 53 54 49 44 44 36 37 41 36 30 27 29 28 28 28 24 22 28 35 36 35 36 39 34 32 32 27 23 22 21 22
67 70 69 67 67 69 69 67 66 65 60 59 57 58 57 59 54 52 49 47 45 41 34 37 38 34 33 33 31 33 39 41 41 41 43 41 37 32 31 27 24 23 21
63 66 69 70 69 68 69 70 74 69 70 68 65 62 61 60 59 61 62 54 56 54 49 46 46 44 42 41 39 37 40 45 46 48 50 50 48 45 39 35 29 30 24
57 64 68 71 72 72 71 71 74 77 78 77 72 68 65 65 65 65 66 65 62 67 63 59 56 53 49 50 46 43 43 48 51 55 56 58 57 54 48 44 39 35 35
62 64 66 73 75 80 85 85 84 86 85 84 81 79 76 73 72 70 74 75 74 73 71 68 66 64 62 62 55 52 52 52 55 59 62 64 64 61 57 54 50 44 42
61 68 70 70 74 81 86 88 91 86 90 88 87 86 83 79 79 74 76 76 81 76 80 83 77 74 76 73 69 56 40 57 66 66 70 71 69 67 65 62 57 53 47
62 63 72 74 73 73 82 89 94 97 96 92 92 91 87 84 81 79 75 78 81 84 81 88 90 88 89 82 81 62 27 35 54 72 78 78 78 77 72 69 65 60 56
50 55 65 77 80 76 77 86 91 94 98 95 93 94 94 88 85 85 82 83 84 83 86 85 97 94 98 96 90 92 83 57 39 40 72 81 84 81 78 77 72 66 64
29 37 46 67 82 83 81 81 84 90 94 94 91 91 92 95 96 96 93 92 89 88 91 92 89 106 99 111 99 95 100 80 71 62 55 70 85 92 85 80 77 75 69
19 26 37 45 69 82 82 81 82 81 86 89 90 88 89 88 92 97 97 96 96 95 97 98 101 99 114 107 114 115 91 101 99 95 85 72 77 86 92 88 85 82 73
Wind_Direction_500mb
160 158 160 152 151 127 110 77 67 58 87 104 117 125 125 112 113 111 101 72 84 88 87 90 94 94 91 91 97 101 100 99 102 101 100 95 94 94 97 96 98 94 92
162 159 145 144 141 123 116 125 116 111 106 109 110 108 118 112 117 114 95 61 86 91 94 98 98 97 95 91 88 92 94 94 95 100 103 102 99 91 82 77 81 81 78
153 158 154 149 145 131 122 115 111 105 102 101 106 113 121 118 128 130 94 77 100 99 103 105 103 95 90 94 88 84 94 98 99 94 90 83 83 87 94 92 86 84 87
153 154 152 158 150 130 122 119 114 109 106 105 107 115 128 128 140 125 93 92 106 107 113 113 110 105 100 98 90 90 97 99 103 101 105 107 104 106 110 105 106 105 100
166 164 167 169 159 144 127 122 118 114 110 108 110 118 132 136 135 112 102 105 108 113 120 120 119 112 106 101 100 106 103 101 105 110 111 110 112 108 108 112 117 116 103
167 168 172 165 165 156 140 130 128 127 119 114 113 118 125 134 127 112 108 112 113 121 127 128 126 117 110 107 109 109 109 111 116 115 114 109 99 99 96 111 118 108 94
172 172 174 174 173 163 153 143 140 137 126 118 115 113 116 116 118 118 120 118 120 127 134 137 138 133 128 128 122 121 120 119 123 113 93 101 107 103 94 97 97 94 93
181 178 179 180 180 175 171 164 156 148 137 130 120 110 109 111 116 120 122 125 128 133 140 146 144 146 142 134 134 141 140 138 131 112 108 119 109 104 97 98 99 97 94
186 187 189 187 186 187 186 182 176 169 161 149 132 118 105 105 112 125 132 134 138 141 150 154 157 159 154 146 147 162 155 141 125 119 123 122 110 100 96 95 94 94 94
194 195 195 195 194 193 192 196 198 184 179 169 151 140 118 119 120 124 124 128 132 144 158 163 170 174 168 156 142 144 140 133 133 134 127 121 113 101 100 98 96 94 91
204 212 211 206 202 201 201 203 203 197 193 190 183 181 165 153 150 148 142 141 145 151 157 169 179 181 182 171 160 158 144 141 148 145 139 147 117 108 105 103 99 96 94
201 207 217 214 209 207 206 208 208 208 205 205 203 200 193 186 177 166 161 152 149 154 162 171 177 182 183 184 171 160 161 151 161 153 145 147 125 113 113 105 102 99 97
202 207 214 215 211 212 210 211 212 213 214 214 212 213 209 200 192 187 180 173 172 169 171 171 185 192 199 202 190 165 165 160 170 162 161 144 121 126 116 110 106 102 99
208 216 221 223 216 217 218 218 220 221 220 219 219 220 221 210 218 201 196 196 192 186 184 177 202 227 223 213 195 173 170 167 168 157 153 157 146 125 127 120 113 111 106
212 219 226 228 226 220 220 224 224 228 229 227 227 227 225 222 231 210 205 202 205 218 208 206 211 248 257 232 203 190 181 173 165 168 167 169 154 146 142 126 130 117 112
214 221 225 228 231 223 220 225 228 227 232 233 231 233 229 228 232 226 220 212 202 221 245 247 261 262 268 251 220 204 211 200 183 177 173 169 164 163 157 146 134 124 121
222 222 226 229 228 227 227 227 229 227 234 235 235 235 235 233 226 231 232 223 225 212 239 251 253 240 237 233 228 223 220 219 214 204 198 201 182 170 170 164 156 143 138
227 227 228 228 228 228 228 227 230 229 234 238 237 235 237 230 226 230 230 232 232 236 242 245 248 240 235 240 229 228 227 227 226 223 214 219 224 227 198 167 162 160 155
237 233 231 231 232 232 234 231 232 232 234 238 239 236 238 238 235 233 232 235 238 235 236 244 245 238 239 236 234 230 231 231 229 226 224 226 228 233 239 247 224 181 171
243 241 237 236 238 237 238 238 235 235 237 239 241 240 239 243 240 240 242 239 240 239 237 234 235 238 237 231 227 228 229 231 231 229 229 230 233 235 234 234 235 228 197
246 242 242 238 237 237 236 234 235 236 236 237 240 241 242 242 243 241 242 241 239 245 248 242 234 231 225 224 223 220 225 230 233 233 234 234 234 235 235 234 232 229 228
251 248 244 244 242 241 240 242 240 241 242 243 245 244 242 240 243 246 245 247 245 246 244 237 236 236 228 225 221 222 219 228 233 235 234 234 234 236 236 234 233 230 232
255 252 248 248 248 247 244 241 241 242 243 245 245 244 240 241 244 243 249 248 249 250 248 247 244 239 233 234 227 226 211 223 236 234 240 236 235 235 235 234 232 231 232
261 261 258 252 250 250 247 246 248 249 250 252 249 247 246 240 239 241 245 247 250 251 250 249 251 248 244 240 232 228 232 244 222 231 236 238 238 235 234 233 232 235 234
273 267 265 257 252 250 250 251 252 253 257 257 256 254 250 246 244 246 247 247 249 252 254 255 249 250 247 242 249 245 238 234 239 240 242 237 236 235 234 234 234 235 233
305 288 275 268 256 252 251 253 256 259 259 260 259 258 257 255 250 248 248 249 250 251 254 255 256 252 250 252 250 244 253 239 251 241 243 242 240 238 238 235 234 233 231
Wind_Speed_850mb
50 44 24 24 22 18 14 16 19 17 22 21 21 21 24 28 25 20 16 15 22 28 29 32 34 37 42 39 36 32 32 32 33 35 34 34 34 31 29 30 32 34 30
51 36 35 31 29 24 19 18 19 21 23 24 27 30 40 33 28 22 14 18 23 29 30 34 37 39 38 36 35 35 35 34 34 34 34 33 36 39 39 35 31 34 29
51 44 34 33 24 26 22 23 24 26 27 25 26 30 38 31 24 16 13 15 24 29 32 37 39 39 38 36 33 36 36 35 40 47 51 53 50 51 54 48 56 52 51
47 45 40 33 29 22 23 23 26 26 28 27 26 27 32 28 19 14 13 15 24 29 33 37 36 37 37 29 29 30 38 39 43 49 47 52 48 41 45 45 51 47 45
42 38 35 32 28 22 22 23 25 25 26 25 24 25 27 25 16 15 16 20 25 28 31 32 29 29 32 29 27 32 35 37 45 44 39 40 36 33 36 40 42 37 37
41 37 34 31 29 24 21 22 22 23 24 24 23 23 23 19 15 16 17 21 25 29 30 30 30 32 32 31 31 35 40 43 39 33 34 32 42 39 39 29 28 29 37
41 36 33 30 29 25 20 19 19 21 22 21 21 21 21 19 17 17 18 21 24 28 30 30 28 28 31 30 31 37 43 34 26 25 28 46 39 40 39 40 41 41 40
38 37 32 31 27 25 21 17 17 18 19 17 18 18 16 17 16 16 18 20 23 27 28 30 27 27 27 26 27 27 26 22 18 28 35 36 25 40 40 40 41 37 35
34 35 36 34 31 29 25 20 17 16 17 15 14 14 13 13 14 14 16 17 20 24 28 29 28 26 24 21 17 21 21 29 32 38 34 28 30 38 38 39 40 38 36
30 32 35 36 37 34 30 25 21 18 18 16 13 10 10 10 13 14 14 15 15 16 19 22 25 22 20 18 21 30 34 34 39 37 31 25 30 35 35 38 38 37 37
37 33 35 38 40 37 34 31 26 20 19 18 16 14 9 10 12 14 15 16 17 17 18 20 19 20 19 17 17 18 32 35 41 36 27 17 28 35 32 33 33 35 34
51 44 38 42 45 43 40 37 34 31 28 25 22 19 15 15 15 16 15 15 15 16 18 19 18 17 17 16 19 30 30 32 33 30 20 21 25 31 34 33 31 31 31
57 51 46 45 50 48 47 43 41 37 33 32 30 26 22 21 18 18 16 15 15 15 15 14 12 14 15 16 22 32 35 32 31 26 19 26 27 27 29 29 29 29 29
62 58 50 41 49 50 46 46 44 43 42 39 36 33 30 26 17 21 16 14 14 15 13 13 9 9 10 13 18 33 32 32 30 32 31 22 25 24 23 28 31 28 27
67 64 61 50 45 52 49 45 46 46 47 43 44 41 36 32 21 23 23 21 17 14 14 12 9 8 9 12 18 33 37 34 33 34 31 28 25 24 23 23 25 30 24
68 69 64 61 53 52 53 50 49 47 44 48 50 48 41 38 32 28 32 30 29 16 22 20 18 15 14 13 19 30 31 33 33 34 33 32 29 26 24 22 19 23 21
65 67 69 66 62 62 62 58 55 56 54 54 53 54 49 44 44 36 37 41 36 30 27 29 28 28 28 24 22 28 35 36 35 36 39 34 32 32 27 23 22 21 22
67 70 69 67 67 69 69 67 66 65 60 59 57 58 57 59 54 52 49 47 45 41 34 37 38 34 33 33 31 33 39 41 41 41 43 41 37 32 31 27 24 23 21
63 66 69 70 69 68 69 70 74 69 70 68 65 62 61 60 59 61 62 54 56 54 49 46 46 44 42 41 39 37 40 45 46 48 50 50 48 45 39 35 29 30 24
57 64 68 71 72 72 71 71 74 77 78 77 72 68 65 65 65 65 66 65 62 67 63 59 56 53 49 50 46 43 43 48 51 55 56 58 57 54 48 44 39 35 35
62 64 66 73 75 80 85 85 84 86 85 84 81 79 76 73 72 70 74 75 74 73 71 68 66 64 62 62 55 52 52 52 55 59 62 64 64 61 57 54 50 44 42
61 68 70 70 74 81 86 88 91 86 90 88 87 86 83 79 79 74 76 76 81 76 80 83 77 74 76 73 69 56 40 57 66 66 70 71 69 67 65 62 57 53 47
62 63 72 74 73 73 82 89 94 97 96 92 92 91 87 84 81 79 75 78 81 84 81 88 90 88 89 82 81 62 27 35 54 72 78 78 78 77 72 69 65 60 56
50 55 65 77 80 76 77 86 91 94 98 95 93 94 94 88 85 85 82 83 84 83 86 85 97 94 98 96 90 92 83 57 39 40 72 81 84 81 78 77 72 66 64
29 37 46 67 82 83 81 81 84 90 94 94 91 91 92 95 96 96 93 92 89 88 91 92 89 106 99 111 99 95 100 80 71 62 55 70 85 92 85 80 77 75 69
19 26 37 45 69 82 82 81 82 81 86 89 90 88 89 88 92 97 97 96 96 95 97 98 101 99 114 107 114 115 91 101 99 95 85 72 77 86 92 88 85 82 73
Wind_Direction_850mb
160 158 160 152 151 127 110 77 67 58 87 104 117 125 125 112 113 111 101 72 84 88 87 90 94 94 91 91 97 101 100 99 102 101 100 95 94 94 97 96 98 94 92
162 159 145 144 141 123 116 125 116 111 106 109 110 108 118 112 117 114 95 61 86 91 94 98 98 97 95 91 88 92 94 94 95 100 103 102 99 91 82 77 81 81 78
153 158 154 149 145 131 122 115 111 105 102 101 106 113 121 118 128 130 94 77 100 99 103 105 103 95 90 94 88 84 94 98 99 94 90 83 83 87 94 92 86 84 87
153 154 152 158 150 130 122 119 114 109 106 105 107 115 128 128 140 125 93 92 106 107 113 113 110 105 100 98 90 90 97 99 103 101 105 107 104 106 110 105 106 105 100
166 164 167 169 159 144 127 122 118 114 110 108 110 118 132 136 135 112 102 105 108 113 120 120 119 112 106 101 100 106 103 101 105 110 111 110 112 108 108 112 117 116 103
167 168 172 165 165 156 140 130 128 127 119 114 113 118 125 134 127 112 108 112 113 121 127 128 126 117 110 107 109 109 109 111 116 115 114 109 99 99 96 111 118 108 94
172 172 174 174 173 163 153 143 140 137 126 118 115 113 116 116 118 118 120 118 120 127 134 137 138 133 128 128 122 121 120 119 123 113 93 101 107 103 94 97 97 94 93
181 178 179 180 180 175 171 164 156 148 137 130 120 110 109 111 116 120 122 125 128 133 140 146 144 146 142 134 134 141 140 138 131 112 108 119 109 104 97 98 99 97 94
186 187 189 187 186 187 186 182 176 169 161 149 132 118 105 105 112 125 132 134 138 141 150 154 157 159 154 146 147 162 155 141 125 119 123 122 110 100 96 95 94 94 94
194 195 195 195 194 193 192 196 198 184 179 169 151 140 118 119 120 124 124 128 132 144 158 163 170 174 168 156 142 144 140 133 133 134 127 121 113 101 100 98 96 94 91
204 212 211 206 202 201 201 203 203 197 193 190 183 181 165 153 150 148 142 141 145 151 157 169 179 181 182 171 160 158 144 141 148 145 139 147 117 108 105 103 99 96 94
201 207 217 214 209 207 206 208 208 208 205 205 203 200 193 186 177 166 161 152 149 154 162 171 177 182 183 184 171 160 161 151 161 153 145 147 125 113 113 105 102 99 97
202 207 214 215 211 212 210 211 212 213 214 214 212 213 209 200 192 187 180 173 172 169 171 171 185 192 199 202 190 165 165 160 170 162 161 144 121 126 116 110 106 102 99
208 216 221 223 216 217 218 218 220 221 220 219 219 220 221 210 218 201 196 196 192 186 184 177 202 227 223 213 195 173 170 167 168 157 153 157 146 125 127 120 113 111 106
212 219 226 228 226 220 220 224 224 228 229 227 227 227 225 222 231 210 205 202 205 218 208 206 211 248 257 232 203 190 181 173 165 168 167 169 154 146 142 126 130 117 112
214 221 225 228 231 223 220 225 228 227 232 233 231 233 229 228 232 226 220 212 202 221 245 247 261 262 268 251 220 204 211 200 183 177 173 169 164 163 157 146 134 124 121
222 222 226 229 228 227 227 227 229 227 234 235 235 235 235 233 226 231 232 223 225 212 239 251 253 240 237 233 228 223 220 219 214 204 198 201 182 170 170 164 156 143 138
227 227 228 228 228 228 228 227 230 229 234 238 237 235 237 230 226 230 230 232 232 236 242 245 248 240 235 240 229 228 227 227 226 223 214 219 224 227 198 167 162 160 155
237 233 231 231 232 232 234 231 232 232 234 238 239 236 238 238 235 233 232 235 238 235 236 244 245 238 239 236 234 230 231 231 229 226 224 226 228 233 239 247 224 181 171
243 241 237 236 238 237 238 238 235 235 237 239 241 240 239 243 240 240 242 239 240 239 237 234 235 238 237 231 227 228 229 231 231 229 229 230 233 235 234 234 235 228 197
246 242 242 238 237 237 236 234 235 236 236 237 240 241 242 242 243 241 242 241 239 245 248 242 234 231 225 224 223 220 225 230 233 233 234 234 234 235 235 234 232 229 228
251 248 244 244 242 241 240 242 240 241 242 243 245 244 242 240 243 246 245 247 245 246 244 237 236 236 228 225 221 222 219 228 233 235 234 234 234 236 236 234 233 230 232
255 252 248 248 248 247 244 241 241 242 243 245 245 244 240 241 244 243 249 248 249 250 248 247 244 239 233 234 227 226 211 223 236 234 240 236 235 235 235 234 232 231 232
261 261 258 252 250 250 247 246 248 249 250 252 249 247 246 240 239 241 245 247 250 251 250 249 251 248 244 240 232 228 232 244 222 231 236 238 238 235 234 233 232 235 234
273 267 265 257 252 250 250 251 252 253 257 257 256 254 250 246 244 246 247 247 249 252 254 255 249 250 247 242 249 245 238 234 239 240 242 237 236 235 234 234 234 235 233
305 288 275 268 256 252 251 253 256 259 259 260 259 258 257 255 250 248 248 249 250 251 254 255 256 252 250 252 250 244 253 239 251 241 243 242 240 238 238 235 234 233 231